KE8RXN Weather Reports


Display with metric or nautical units.
time (UTC)temp
F
wind
direction
speed
MPH
gust
MPH
rain 1hr
in
rain 24hr
in
rain mn
in
humidity
%
barometer
mb
20260507093740 36 33 0.0 0.0 0.00 0.00 0.00 82 1016.4
20260507093238 36 24 1.0 1.0 0.00 0.00 0.00 82 1016.5
20260507092736 36 36 0.0 0.0 0.00 0.00 0.00 81 1016.4
20260507092231 37 36 0.0 0.0 0.00 0.00 0.00 80 1016.3
20260507091728 37 36 0.0 0.0 0.00 0.00 0.00 80 1016.5
20260507091225 37 36 0.0 0.0 0.00 0.00 0.00 80 1016.4
20260507090720 37 35 0.0 0.0 0.00 0.00 0.00 79 1016.6
20260507090217 38 33 0.0 0.0 0.00 0.00 0.00 78 1016.5
20260507085714 38 33 0.0 0.0 0.00 0.00 0.00 77 1016.5
20260507085211 39 32 0.0 0.0 0.00 0.00 0.00 75 1016.6
20260507084708 39 31 0.0 0.0 0.00 0.00 0.00 74 1016.6
20260507084204 39 32 0.0 0.0 0.00 0.00 0.00 74 1016.6
20260507083702 39 33 0.0 0.0 0.00 0.00 0.00 74 1016.6
20260507083158 40 31 0.0 0.0 0.00 0.00 0.00 74 1016.7
20260507082654 40 13 1.0 1.0 0.00 0.00 0.00 75 1016.6
20260507082150 40 30 0.0 0.0 0.00 0.00 0.00 75 1016.7
20260507081647 40 17 0.0 1.0 0.00 0.00 0.00 75 1016.7
20260507081143 40 27 0.0 0.0 0.00 0.00 0.00 74 1016.9
20260507080640 40 31 0.0 0.0 0.00 0.00 0.00 75 1016.9
20260507080136 39 34 0.0 0.0 0.00 0.00 0.00 77 1016.8
20260507075631 39 29 0.0 0.0 0.00 0.00 0.00 79 1017.0
20260507075128 39 24 0.0 1.0 0.00 0.00 0.00 80 1017.1
20260507074625 39 33 0.0 0.0 0.00 0.00 0.00 80 1017.0
20260507074123 39 33 0.0 0.0 0.00 0.00 0.00 79 1016.9
20260507073619 39 28 0.0 0.0 0.00 0.00 0.00 78 1016.8
20260507073115 39 26 0.0 0.0 0.00 0.00 0.00 77 1016.9
20260507072613 39 22 0.0 1.0 0.00 0.00 0.00 78 1016.8
20260507072110 39 26 0.0 0.0 0.00 0.00 0.00 77 1016.8
20260507071608 40 24 0.0 1.0 0.00 0.00 0.00 77 1016.9
20260507071104 40 29 0.0 0.0 0.00 0.00 0.00 76 1017.0
20260507070601 40 28 0.0 0.0 0.00 0.00 0.00 75 1016.8
20260507070058 40 32 0.0 0.0 0.00 0.00 0.00 74 1016.9
20260507065554 41 33 0.0 0.0 0.00 0.00 0.00 74 1016.8
20260507065052 41 31 0.0 0.0 0.00 0.00 0.00 73 1016.8
20260507064549 41 31 0.0 0.0 0.00 0.00 0.00 73 1017.1
20260507064048 42 32 0.0 0.0 0.00 0.00 0.00 72 1017.0
20260507063544 42 19 0.0 1.0 0.00 0.00 0.00 72 1017.2
20260507063042 42 27 0.0 0.0 0.00 0.00 0.00 72 1017.1
20260507062538 42 29 0.0 0.0 0.00 0.00 0.00 71 1017.3
20260507062036 42 18 1.0 1.0 0.00 0.00 0.00 71 1017.1
20260507061533 43 21 1.0 1.0 0.00 0.00 0.00 70 1017.0
20260507061031 43 15 0.0 1.0 0.00 0.00 0.00 70 1017.0
20260507060529 43 8 1.0 1.0 0.00 0.00 0.00 70 1017.0
20260507060025 44 5 1.0 2.0 0.00 0.00 0.00 69 1017.0
20260507055520 44 338 1.0 2.0 0.00 0.00 0.00 69 1017.2
20260507055016 44 358 1.0 1.0 0.00 0.00 0.00 69 1017.1
20260507054513 44 347 2.0 2.0 0.00 0.00 0.00 68 1017.0
20260507054010 44 288 2.0 2.0 0.00 0.00 0.00 68 1017.1
20260507053508 44 358 1.0 2.0 0.00 0.00 0.00 68 1017.2
20260507053006 44 10 1.0 1.0 0.00 0.00 0.00 67 1017.3
20260507052504 44 15 1.0 1.0 0.00 0.00 0.00 69 1017.1
20260507052000 44 18 0.0 1.0 0.00 0.00 0.00 69 1017.1
20260507051458 44 16 1.0 1.0 0.00 0.00 0.00 70 1017.2
20260507050954 43 26 0.0 1.0 0.00 0.00 0.00 70 1017.1
20260507050450 43 33 0.0 0.0 0.00 0.00 0.00 71 1017.2
20260507045948 43 33 0.0 0.0 0.00 0.00 0.00 71 1017.1
20260507045444 43 33 0.0 0.0 0.00 0.00 0.00 72 1017.2
20260507044941 43 33 0.0 0.0 0.00 0.00 0.00 72 1017.1
20260507044438 43 33 0.0 0.0 0.00 0.00 0.00 73 1017.1
20260507043934 43 33 0.0 0.0 0.00 0.00 0.00 72 1017.1
20260507043431 43 33 0.0 0.0 0.00 0.00 0.00 72 1017.1
20260507042927 43 33 0.0 0.0 0.00 0.00 0.00 70 1017.3
20260507042424 43 33 0.0 0.0 0.00 0.00 0.00 70 1017.0
20260507041919 43 34 0.0 0.0 0.00 0.00 0.00 70 1017.2
20260507041416 43 33 0.0 0.0 0.00 0.00 0.00 71 1017.1
20260507040914 42 33 0.0 0.0 0.00 0.00 0.00 72 1017.0
20260507040409 42 33 0.0 0.0 0.00 0.00 0.00 71 1017.2
20260507035905 42 34 0.0 0.0 0.00 0.00 0.00 69 1017.2
20260507035402 42 33 0.0 0.0 0.00 0.00 0.00 69 1017.2
20260507034859 42 33 0.0 0.0 0.00 0.00 0.00 66 1017.3
20260507034355 43 33 0.0 0.0 0.00 0.00 0.00 65 1017.2
20260507033854 44 33 0.0 0.0 0.00 0.00 0.00 65 1017.3
20260507033352 44 33 0.0 0.0 0.00 0.00 0.00 64 1017.2
20260507032848 44 35 0.0 0.0 0.00 0.00 0.00 62 1017.3
20260507032345 44 35 0.0 0.0 0.00 0.00 0.00 61 1017.2
20260507031841 45 33 0.0 0.0 0.00 0.00 0.00 60 1017.3
20260507031338 45 20 0.0 1.0 0.00 0.00 0.00 59 1017.4
20260507030834 45 26 0.0 0.0 0.00 0.00 0.00 58 1017.3
20260507030332 45 34 0.0 0.0 0.00 0.00 0.00 59 1017.3
20260507025829 46 34 0.0 0.0 0.00 0.00 0.00 59 1017.2
20260507025326 46 33 0.0 0.0 0.00 0.00 0.00 58 1017.4
20260507024824 46 32 0.0 0.0 0.00 0.00 0.00 57 1017.3
20260507024321 47 31 0.0 0.0 0.00 0.00 0.00 56 1017.2
20260507023817 47 5 1.0 1.0 0.00 0.00 0.00 55 1017.3
20260507023313 47 27 0.0 1.0 0.00 0.00 0.00 54 1017.3
20260507022811 47 27 0.0 0.0 0.00 0.00 0.00 54 1017.2
20260507022307 47 8 1.0 1.0 0.00 0.00 0.00 54 1017.2
20260507021803 47 28 0.0 0.0 0.00 0.00 0.00 54 1017.3
20260507021259 47 7 1.0 1.0 0.00 0.00 0.00 53 1017.2
20260507020757 47 26 0.0 0.0 0.00 0.00 0.00 54 1017.1
20260507020253 47 60 1.0 1.0 0.00 0.00 0.00 54 1017.1
20260507015751 47 21 0.0 1.0 0.00 0.00 0.00 53 1017.0
20260507015248 48 33 0.0 0.0 0.00 0.00 0.00 55 1016.9
20260507014745 48 27 0.0 0.0 0.00 0.00 0.00 53 1016.9
20260507014241 48 335 0.0 1.0 0.00 0.00 0.00 53 1016.9
20260507013738 48 348 1.0 1.0 0.00 0.00 0.00 53 1016.8
20260507013235 48 22 0.0 0.0 0.00 0.00 0.00 53 1016.8
20260507012732 48 31 0.0 0.0 0.00 0.00 0.00 53 1016.9
20260507012228 48 300 1.0 1.0 0.00 0.00 0.00 52 1016.8
20260507011726 48 279 1.0 2.0 0.00 0.00 0.00 51 1016.7
20260507011222 48 13 0.0 1.0 0.00 0.00 0.00 51 1016.9
20260507010722 49 20 0.0 1.0 0.00 0.00 0.00 50 1016.7
20260507010218 49 328 1.0 1.0 0.00 0.00 0.00 49 1017.0
20260507005716 49 304 2.0 2.0 0.00 0.00 0.00 49 1016.7
20260507005212 49 21 1.0 1.0 0.00 0.00 0.00 50 1016.8
20260507004709 49 319 2.0 2.0 0.00 0.00 0.00 48 1016.6
20260507004206 49 239 2.0 3.0 0.00 0.00 0.00 49 1016.8
20260507003702 49 317 1.0 2.0 0.00 0.00 0.00 48 1016.6
20260507003157 49 336 1.0 1.0 0.00 0.00 0.00 48 1016.6
20260507002654 50 22 1.0 1.0 0.00 0.00 0.00 48 1016.6
20260507002150 50 256 2.0 2.0 0.00 0.00 0.00 47 1016.6
20260507001647 50 317 1.0 1.0 0.00 0.00 0.00 47 1016.5
20260507001144 50 258 3.0 5.0 0.00 0.00 0.00 47 1016.4
20260507000641 50 20 1.0 1.0 0.00 0.00 0.00 47 1016.4
20260507000136 50 344 1.0 1.0 0.00 0.00 0.00 47 1016.3
20260506235633 50 20 1.0 1.0 0.00 0.00 0.00 47 1016.4
20260506235128 50 1 1.0 1.0 0.00 0.00 0.00 46 1016.5
20260506234626 50 320 1.0 2.0 0.00 0.00 0.00 46 1016.4
20260506234122 50 271 3.0 3.0 0.00 0.00 0.00 45 1016.4
20260506233620 50 305 1.0 2.0 0.00 0.00 0.00 45 1016.4
20260506233117 50 356 1.0 1.0 0.00 0.00 0.00 45 1016.3
20260506232612 51 2 1.0 2.0 0.00 0.00 0.00 44 1016.5
20260506232108 51 273 5.0 6.0 0.00 0.00 0.00 43 1016.3
20260506231605 51 325 2.0 2.0 0.00 0.00 0.00 43 1016.3
20260506231104 51 253 4.0 5.0 0.00 0.00 0.00 43 1016.2
20260506230600 51 325 4.0 6.0 0.00 0.00 0.00 42 1016.3
20260506230057 52 313 3.0 3.0 0.00 0.00 0.00 43 1016.3
20260506225554 52 293 2.0 2.0 0.00 0.00 0.00 43 1016.2
20260506225050 52 265 7.0 9.0 0.00 0.00 0.00 41 1016.3
20260506224547 52 227 3.0 3.0 0.00 0.00 0.00 41 1016.3
20260506224044 53 340 2.0 2.0 0.00 0.00 0.00 41 1016.4
20260506223539 53 275 3.0 5.0 0.00 0.00 0.00 40 1016.3
20260506223036 53 308 2.0 2.0 0.00 0.00 0.00 41 1016.3
20260506222533 53 344 3.0 5.0 0.00 0.00 0.00 40 1016.3
20260506222029 53 309 5.0 7.0 0.00 0.00 0.00 40 1016.4
20260506221527 53 253 3.0 3.0 0.00 0.00 0.00 40 1016.2
20260506221025 53 286 4.0 6.0 0.00 0.00 0.00 39 1016.4
20260506220521 53 241 4.0 5.0 0.00 0.00 0.00 40 1016.3
20260506220016 54 236 3.0 6.0 0.00 0.00 0.00 40 1016.2
20260506215513 53 308 2.0 2.0 0.00 0.00 0.00 40 1016.3
20260506215009 54 290 4.0 8.0 0.00 0.00 0.00 39 1016.2
20260506214506 54 284 3.0 3.0 0.00 0.00 0.00 38 1016.3
20260506214003 54 232 5.0 6.0 0.00 0.00 0.00 38 1016.3
20260506213502 55 276 4.0 5.0 0.00 0.00 0.00 37 1016.3
20260506212958 55 4 2.0 2.0 0.00 0.00 0.00 39 1016.2
20260506212454 55 253 4.0 5.0 0.00 0.00 0.00 38 1016.4
20260506211949 55 289 3.0 3.0 0.00 0.00 0.00 38 1016.2
20260506211445 55 311 3.0 3.0 0.00 0.00 0.00 38 1016.2
20260506210943 56 244 5.0 7.0 0.00 0.00 0.00 37 1016.1
20260506210439 55 265 4.0 5.0 0.00 0.00 0.00 37 1016.2
20260506205937 55 295 4.0 5.0 0.00 0.00 0.00 38 1016.3
20260506205432 56 224 7.0 8.0 0.00 0.00 0.00 36 1016.4
20260506204928 55 201 7.0 10.0 0.00 0.00 0.00 37 1016.1
20260506204427 56 245 4.0 6.0 0.00 0.00 0.00 38 1016.5
20260506203924 55 282 3.0 3.0 0.00 0.00 0.00 37 1016.4
20260506203421 55 216 3.0 5.0 0.00 0.00 0.00 38 1016.4
20260506202918 56 278 3.0 6.0 0.00 0.00 0.00 37 1016.4
20260506202415 56 255 3.0 3.0 0.00 0.00 0.00 37 1016.4
20260506201911 55 246 7.0 10.0 0.00 0.00 0.00 36 1016.3
20260506201409 56 263 3.0 3.0 0.00 0.00 0.00 36 1016.5
20260506200905 57 254 3.0 5.0 0.00 0.00 0.00 37 1016.5
20260506200401 56 288 3.0 5.0 0.00 0.00 0.00 37 1016.5
20260506195858 55 287 3.0 5.0 0.00 0.00 0.00 37 1016.5
20260506195355 55 279 5.0 7.0 0.00 0.00 0.00 35 1016.6
20260506194852 54 295 4.0 5.0 0.00 0.00 0.00 38 1016.8
20260506194349 55 293 3.0 5.0 0.00 0.00 0.00 36 1016.4
20260506193846 56 241 4.0 5.0 0.00 0.00 0.00 35 1016.6
20260506193343 56 273 1.0 1.0 0.00 0.00 0.00 38 1016.6
20260506192839 55 220 5.0 6.0 0.00 0.00 0.00 37 1016.8
20260506192336 56 4 3.0 5.0 0.00 0.00 0.00 35 1016.8
20260506191833 54 273 3.0 3.0 0.00 0.00 0.00 37 1016.6
20260506191329 55 292 4.0 5.0 0.00 0.00 0.00 36 1016.7
20260506190827 55 257 4.0 6.0 0.00 0.00 0.00 37 1016.5
20260506190323 54 209 3.0 3.0 0.00 0.00 0.00 39 1016.8
20260506185820 54 281 4.0 5.0 0.00 0.00 0.00 38 1016.7
20260506185317 54 239 5.0 7.0 0.00 0.00 0.00 38 1016.6
20260506184814 54 226 3.0 5.0 0.00 0.00 0.00 39 1016.7
20260506184311 53 295 2.0 3.0 0.00 0.00 0.00 40 1016.7
20260506183808 55 311 3.0 5.0 0.00 0.00 0.00 37 1016.7
20260506183303 54 323 3.0 3.0 0.00 0.00 0.00 39 1016.6
20260506182801 55 287 5.0 6.0 0.00 0.00 0.00 38 1016.5
20260506182258 54 282 3.0 3.0 0.00 0.00 0.00 40 1016.5
20260506181755 54 232 8.0 8.0 0.00 0.00 0.00 40 1016.5
20260506181253 54 271 5.0 8.0 0.00 0.00 0.00 39 1016.6
20260506180750 53 287 3.0 3.0 0.00 0.00 0.00 40 1016.7
20260506180246 54 319 2.0 2.0 0.00 0.00 0.00 40 1016.7
20260506175742 54 287 4.0 7.0 0.00 0.00 0.00 39 1016.6
20260506175240 52 277 3.0 5.0 0.00 0.00 0.00 42 1016.7
20260506174737 53 328 3.0 3.0 0.00 0.00 0.00 39 1016.6
20260506174234 54 239 10.0 15.0 0.00 0.00 0.00 38 1016.6
20260506173732 53 278 4.0 5.0 0.00 0.00 0.00 39 1016.7
20260506173228 52 271 3.0 5.0 0.00 0.00 0.00 40 1016.6
20260506172725 53 291 5.0 10.0 0.00 0.00 0.00 41 1016.8
20260506172221 52 294 4.0 5.0 0.00 0.00 0.00 40 1016.8
20260506171719 53 283 3.0 5.0 0.00 0.00 0.00 40 1016.8
20260506171216 53 313 2.0 2.0 0.00 0.00 0.00 41 1016.8
20260506170714 52 241 7.0 11.0 0.00 0.00 0.00 41 1017.1
20260506170210 52 336 1.0 2.0 0.00 0.00 0.00 40 1016.9
20260506165709 51 272 1.0 2.0 0.00 0.00 0.00 42 1016.9
20260506165205 51 233 2.0 2.0 0.00 0.00 0.00 42 1016.9
20260506164702 52 289 4.0 5.0 0.00 0.00 0.00 42 1017.0
20260506164200 53 284 3.0 5.0 0.00 0.00 0.00 43 1016.9
20260506163656 53 324 1.0 1.0 0.00 0.00 0.00 43 1017.0
20260506163151 53 355 1.0 1.0 0.00 0.00 0.00 44 1016.9
20260506162647 53 15 1.0 1.0 0.00 0.00 0.00 41 1016.8
20260506162145 52 17 0.0 1.0 0.00 0.00 0.00 43 1017.1
20260506161642 51 341 2.0 2.0 0.00 0.00 0.00 44 1016.9
20260506161139 51 272 2.0 2.0 0.00 0.00 0.00 45 1017.1
20260506160636 51 350 1.0 1.0 0.00 0.00 0.00 45 1017.0
20260506160133 53 265 2.0 2.0 0.00 0.00 0.00 42 1017.0
20260506155631 55 11 2.0 3.0 0.00 0.00 0.00 40 1017.1
20260506155128 52 23 0.0 1.0 0.00 0.00 0.00 43 1017.1
20260506153225 53 359 2.0 2.0 0.00 0.00 0.00 42 1017.1
20260506152721 52 18 0.0 1.0 0.00 0.00 0.00 43 1017.2
20260506152219 52 24 1.0 1.0 0.00 0.00 0.00 43 1016.9
20260506151718 52 306 3.0 3.0 0.00 0.00 0.00 42 1016.9
20260506151214 52 352 2.0 2.0 0.00 0.00 0.00 42 1017.0
20260506150710 52 31 1.0 1.0 0.00 0.00 0.00 44 1017.0
20260506150208 51 240 2.0 3.0 0.00 0.00 0.00 43 1017.0
20260506145705 50 200 5.0 6.0 0.00 0.00 0.00 45 1016.9
20260506145201 50 5 0.0 1.0 0.00 0.00 0.00 43 1017.1
20260506144659 50 303 1.0 2.0 0.00 0.00 0.00 43 1017.1
20260506144155 52 181 3.0 5.0 0.00 0.00 0.00 44 1016.9
20260506143653 52 28 1.0 1.0 0.00 0.00 0.00 42 1016.7
20260506143151 52 24 1.0 1.0 0.00 0.00 0.00 46 1016.7
20260506142649 50 57 1.0 2.0 0.00 0.00 0.00 46 1016.7
20260506142147 51 73 2.0 2.0 0.00 0.00 0.00 48 1016.7
20260506141644 52 291 2.0 2.0 0.00 0.00 0.00 47 1016.5
20260506141142 51 45 0.0 0.0 0.00 0.00 0.00 52 1016.5
20260506140639 51 40 0.0 0.0 0.00 0.00 0.00 53 1016.8
20260506140137 50 74 2.0 2.0 0.00 0.00 0.00 51 1016.6
20260506135633 49 59 1.0 1.0 0.00 0.00 0.00 53 1016.3
20260506135130 48 51 1.0 1.0 0.00 0.00 0.00 58 1016.5
20260506134626 48 58 2.0 2.0 0.00 0.00 0.00 59 1016.4
20260506134122 48 357 1.0 1.0 0.00 0.00 0.00 61 1016.5
20260506133620 47 55 1.0 1.0 0.00 0.00 0.00 64 1016.3
20260506133116 47 56 2.0 2.0 0.00 0.00 0.00 63 1016.4
20260506132614 47 45 3.0 3.0 0.00 0.00 0.00 65 1016.3
20260506132111 46 62 1.0 2.0 0.00 0.00 0.00 66 1016.3
20260506131608 46 20 1.0 2.0 0.00 0.00 0.00 66 1016.1
20260506131104 46 33 1.0 1.0 0.00 0.00 0.00 67 1016.4
20260506130601 45 33 1.0 2.0 0.00 0.00 0.00 67 1016.3
20260506130059 45 27 1.0 1.0 0.00 0.00 0.00 68 1016.3
20260506125557 45 59 3.0 3.0 0.00 0.00 0.00 68 1016.5
20260506125054 44 64 2.0 3.0 0.00 0.00 0.00 71 1016.4
20260506124552 44 69 3.0 3.0 0.00 0.00 0.00 69 1016.3
20260506124049 44 54 1.0 2.0 0.00 0.00 0.00 71 1016.3
20260506123547 43 47 1.0 1.0 0.00 0.00 0.00 71 1016.4
20260506123045 43 45 1.0 1.0 0.00 0.00 0.00 72 1016.3
20260506122541 42 29 1.0 2.0 0.00 0.00 0.00 74 1016.3
20260506122040 42 43 3.0 3.0 0.00 0.00 0.00 73 1016.2
20260506121537 42 30 1.0 1.0 0.00 0.00 0.00 75 1016.1
20260506121033 42 34 1.0 1.0 0.00 0.00 0.00 74 1016.0
20260506120531 42 29 1.0 1.0 0.00 0.00 0.00 74 1016.3
20260506120028 42 40 1.0 1.0 0.00 0.00 0.00 74 1015.8
20260506115526 41 30 1.0 1.0 0.00 0.00 0.00 74 1015.8
20260506115025 41 41 0.0 0.0 0.00 0.00 0.00 75 1015.7
20260506114521 41 18 1.0 1.0 0.00 0.00 0.00 75 1015.5
20260506114020 40 7 1.0 1.0 0.00 0.00 0.00 76 1015.4
20260506113517 40 48 0.0 1.0 0.00 0.00 0.00 77 1015.3
20260506113015 39 39 1.0 2.0 0.00 0.00 0.00 77 1015.3
20260506112511 39 39 1.0 1.0 0.00 0.00 0.00 80 1015.2
20260506112009 38 38 0.0 0.0 0.00 0.00 0.00 82 1015.2
20260506111507 36 34 0.0 0.0 0.00 0.00 0.00 84 1015.1
20260506111003 36 23 0.0 1.0 0.00 0.00 0.00 84 1014.9
20260506110501 36 3 0.0 1.0 0.00 0.00 0.00 84 1014.7
20260506105957 36 35 0.0 0.0 0.00 0.00 0.00 85 1014.6
20260506105454 35 36 0.0 0.0 0.00 0.00 0.00 86 1014.7
20260506104951 35 33 0.0 0.0 0.00 0.00 0.00 88 1014.9
20260506104449 34 38 0.0 0.0 0.00 0.00 0.00 88 1014.7
20260506103947 34 39 0.0 0.0 0.00 0.00 0.00 88 1014.8
20260506103444 34 38 0.0 0.0 0.00 0.00 0.00 88 1014.9
20260506102941 34 41 0.0 0.0 0.00 0.00 0.00 88 1014.9
20260506102439 34 39 0.0 0.0 0.00 0.00 0.00 87 1014.8
20260506101936 35 38 0.0 0.0 0.00 0.00 0.00 86 1014.9
20260506101432 35 38 0.0 0.0 0.00 0.00 0.00 85 1014.7
20260506100930 36 33 0.0 0.0 0.00 0.00 0.00 84 1014.7
20260506100428 36 20 0.0 1.0 0.00 0.00 0.00 84 1014.7
20260506095926 36 33 0.0 0.0 0.00 0.00 0.00 84 1014.5
20260506095424 37 27 0.0 0.0 0.00 0.00 0.00 83 1014.6
20260506094920 37 27 0.0 0.0 0.00 0.00 0.00 84 1014.5
20260506094419 37 30 0.0 0.0 0.00 0.00 0.00 84 1014.4
20260506093916 37 29 0.0 0.0 0.00 0.00 0.00 84 1014.5